Regional Weather Roundup
Issued by NWS

Home | Current Version | Previous Version | Text Only | Print | Product List | Glossary Off
Versions: 1 2 3 4 5 6 7 8 9 10 11 12 13 14 15 16 17 18 19 20 21 22 23 24 25 26 27 28 29 30 31 32 33 34 35 36 37 38 39 40 41 42 43 44 45 46 47 48 49 50

000
ASUS43 KLOT 291006
RWRIL

ILLINOIS REGIONAL WEATHER ROUNDUP
NATIONAL WEATHER SERVICE CHICAGO/ROMEOVILLE IL
400 AM CST MON DEC 29 2014

NOTE: "FAIR" INDICATES FEW OR NO CLOUDS BELOW 12,000 FEET WITH NO
SIGNIFICANT WEATHER AND/OR OBSTRUCTIONS TO VISIBILITY.

* THESE STATIONS ARE NOT UNDER NWS QUALITY CONTROL. THEY ALSO MAY NOT
  REPORT WEATHER SUCH AS PRECIPITATION OR FOG.

ILZ001-002-007-009-015-016-024-291100-
NORTHWEST ILLINOIS

CITY           SKY/WX    TMP DP  RH WIND       PRES   REMARKS
MOLINE         MOCLDY    24  20  84 CALM      30.28S
STERLING*      PTCLDY    27  19  74 CALM      30.28S
SAVANNA*       CLOUDY    27  21  79 NE7       30.29S WCI  19
$$

ILZ003-004-008-010-011-017-018-291100-
NORTH CENTRAL ILLINOIS

CITY           SKY/WX    TMP DP  RH WIND       PRES   REMARKS
ROCKFORD       CLOUDY    25  19  78 N6        30.31R WCI  18
FREEPORT*      CLOUDY    24  21  87 N6        30.31S WCI  17
ROCHELLE*      CLOUDY    24  20  86 NE6       30.28S WCI  17
DE KALB*       CLOUDY    23  19  85 N5        30.27S WCI  17
PERU*          PTCLDY    23  19  85 CALM      30.28S
$$

ILZ005-006-012>014-019>023-291100-
NORTHEAST ILLINOIS

CITY           SKY/WX    TMP DP  RH WIND       PRES   REMARKS
CHICAGO-OHARE  MOCLDY    26  18  71 N7        30.27S WCI  18
CHICAGO-MIDWAY PTCLDY    29  21  72 N6        30.27S WCI  23
AURORA         PTCLDY    24  18  77 N3        30.28R
LANSING*       PTCLDY    23  19  87 CALM      30.27S
JOLIET*        PTCLDY    22  19  87 N3        30.27S
WAUKEGAN       CLOUDY    26  20  77 NW5       30.28R WCI  20
DUPAGE AIRPORT PTCLDY    21  17  84 N6        30.26S WCI  13
KANKAKEE*      PTCLDY    23  20  87 W3        30.27S
WHEELING       MOCLDY    24  17  74 NW5       30.29S WCI  18
MORRIS*        PTCLDY    23  19  85 CALM      30.27S
ROMEOVILLE*    PTCLDY    24  19  81 N6        30.27S WCI  17
NORTHERLY ISL    N/A     32  23  70 N12         N/A  WCI  23
$$

LMZ740>746-291100-
SOUTHERN LAKE MICHIGAN

STATION/POSITION SKY/WX   TEMP    WIND        PRES    VSBY  WAVE
                          AIR SEA DIR/SP/G                  HT/PER
                          (F)     (DEG/KT/KT) (MB)    (MI)  (FT/S)
WAUKEGAN HARBOR            27     340/  5/  9   N/A
HARRISON CRIB              32     350/ 12/ 14   N/A
BURNHAM HARBOR             32     330/  8/ 10   N/A
CALUMET HARBOR             29     280/  4/  5 1023.5F
MICHIGAN CITY              34     350/ 11/ 13   N/A
$$

ILZ025>027-034>036-040-047-049-050-058-095>099-291100-
WEST-CENTRAL ILLINOIS

CITY           SKY/WX    TMP DP  RH WIND       PRES   REMARKS
QUINCY         CLEAR     24  21  88 E3        30.25S
GALESBURG*     PTCLDY    18  16  91 CALM      30.26F
MACOMB*        PTCLDY    22  21  96 NE3       30.28F
JACKSONVILLE*  CLEAR     22  20  92 E3        30.26S
PITTSFIELD*    PTCLDY    24  22  94 CALM      30.26S
$$

ILZ028>032-037-038-041>044-048-051>054-059>061-291100-
CENTRAL ILLINOIS

CITY           SKY/WX    TMP DP  RH WIND       PRES   REMARKS
PONTIAC        PTCLDY    22  20  90 CALM      30.28S
BLOOMINGTON    PTCLDY    22  20  92 CALM      30.26S
DECATUR        CLEAR     20  18  92 NE3       30.25F
PEORIA         PTCLDY    23  18  81 NE3       30.28R
LACON*         PTCLDY    20  17  90 CALM      30.28S
LINCOLN*       PTCLDY    22  21  93 CALM      30.28S
SPRINGFIELD    CLEAR     20  16  84 CALM      30.27R
TAYLORVILLE    CLEAR     23  23 100 CALM      30.26R FOG
$$

ILZ033-039-045-046-055>057-062-063-291100-
EAST-CENTRAL ILLINOIS

CITY           SKY/WX    TMP DP  RH WIND       PRES   REMARKS
CHAMPAIGN      CLEAR     20  17  88 N5        30.25F WCI  13
DANVILLE*      CLEAR     19  18  95 CALM      30.23S FOG
RANTOUL*       CLEAR     24  19  78 CALM      30.26R
MATTOON        CLEAR     21  20  96 NE3       30.24F
PARIS*         CLEAR     22  21  96 CALM      30.26F
$$

ILZ079-100>102-291100-
SOUTHWEST ILLINOIS

CITY           SKY/WX    TMP DP  RH WIND       PRES   REMARKS
ALTON          CLEAR     23  22  96 CALM      30.26S FOG
CAHOKIA*       CLEAR     23  21  92 CALM      30.26S FOG
SPARTA*        CLEAR     24  22  96 CALM      30.25F
$$

ILZ064>066-069>071-074>076-080>082-084>086-088>090-092>094-291100-
SOUTH-CENTRAL ILLINOIS

CITY           SKY/WX    TMP DP  RH WIND       PRES   REMARKS
CARBONDALE     CLOUDY    30  25  81 N5        30.25S WCI  25
CAIRO*         CLOUDY    33  28  80 NE7       30.23S WCI  27
EFFINGHAM*     CLEAR     23  21  90 CALM      30.27S
MARION         PTCLDY    28  27  93 N5        30.25F WCI  23
MT. VERNON     CLEAR     19  14  79 CALM      30.25F
CENTRALIA*     CLEAR     24  22  93 CALM      30.25S FOG
SALEM*         CLEAR     26  24  93 CALM      30.25F FOG
METROPOLIS*    CLOUDY    32  28  84 N6        30.22F WCI  26
$$

ILZ067-068-072-073-078-083-087-091-291100-
SOUTHEAST ILLINOIS

CITY           SKY/WX    TMP DP  RH WIND       PRES   REMARKS
LAWRENCEVILLE  MOCLDY    25  23  92 N6        30.27R WCI  18
FLORA*         CLEAR     24  23  96 CALM      30.27R
FAIRFIELD*     CLEAR     24  23  94 CALM      30.25S
HARRISBURG*    CLEAR     26  26 100 N3        30.26S
ROBINSON*      CLEAR     22  21  96 N3        30.27S
CARMI*         CLOUDY    29  28  95 N5        30.24F WCI  24
$$

ABBREVIATIONS USED IN REMARKS
   TC - TEMPERATURE IN CELSIUS
  WCI - WIND CHILL INDEX
   HX - HEAT INDEX
  VSB - VISIBILITY
$$



USA.gov is the U.S. government's official web portal to all federal, state and local government web resources and services.